Hourly Data Report for September 15, 2017

All times are specified in Local Standard Time (LST). Add 1 hour to adjust for Daylight Saving Time where and when it is observed.

MIRAMICHI RCS
NEW BRUNSWICK

47°00'34.000" N
65°27'54.000" W
33.00 m
8100989
71744
ACQ

Download Data

Hourly Data (September 2017)
Hourly Data Report for September 15, 2017
Temp Definition
°C
Dew Point Temp Definition
°C
Rel Hum Definition
%
Wind Dir Definition
10's deg

Wind Spd Definition
km/h
Visibility Definition
km
Stn Press Definition
kPa
Hmdx Definition


Wind Chill Definition


Weather Definition


TIME
00:00 15.6 7.7 60 3 7   100.98     LegendNANA
01:00 15.1 8.1 63 5 4   101.07     LegendNANA
02:00 15.0 7.7 62 1 4   101.14     LegendNANA
03:00 14.6 7.1 61 2 6   101.17     LegendNANA
04:00 13.6 6.8 64 1 5   101.21     LegendNANA
05:00 13.0 6.2 63 36 7   101.32     LegendNANA
06:00 12.7 6.9 68 36 9   101.41     LegendNANA
07:00 12.1 7.6 74   0   101.48     LegendNANA
08:00 13.1 9.0 76 34 3   101.56     LegendNANA
09:00 14.9 9.3 69 4 7   101.67     LegendNANA
10:00 17.3 11.5 69 3 2   101.68     LegendNANA
11:00 18.8 11.8 64 35 2   101.67     LegendNANA
12:00 19.8 9.8 53 15 6   101.63     LegendNANA
13:00 21.0 9.9 49 21 4   101.58     LegendNANA
14:00 20.6 12.5 60 5 9   101.54     LegendNANA
15:00 21.3 12.7 58 7 9   101.53     LegendNANA
16:00 20.8 11.7 56 8 7   101.54     LegendNANA
17:00 20.8 12.4 59 8 10   101.55     LegendNANA
18:00 18.5 11.5 64 12 12   101.56     LegendNANA
19:00 15.7 11.2 75 11 8   101.59     LegendNANA
20:00 14.9 11.1 78 0 1   101.60     LegendNANA
21:00 13.8 11.0 83 2 6   101.61     LegendNANA
22:00 12.5 10.6 88 26 3   101.56     LegendNANA
23:00 12.1 10.5 90 27 7   101.54     LegendNANA

Notes on Data Quality.

Legend

  • E = Estimated
  • M = Missing
  • NA = Not Available
  • ‡ = Partner data that is not subject to review by the National Climate Archives
Date modified: